Volver al catálogo

COSMOS 886 DEB

ActivoUNKNOWN
NORAD 14799·DEBRIS·🇷🇺 Russia

Lanzado Dec 27, 1976 desde Baikonur Cosmodrome

Loading…

Próximos Pases (próximas 24 horas)

TLE

ActualizadoSource: Space-Track

Época: Sep 14, 2026, 00:29 UTC

1 14799U 76126BR  26257.02035926  .00000037  00000-0  54347-3 0  9997
2 14799  65.8082 107.6315 0880647  13.7732 134.8443 11.69570083830480

Sigue COSMOS 886 DEB en tiempo real con AllMySat

Download on the App Store